Time,TemperatureF,DewpointF,PressureIn,WindDirection,WindDirectionDegrees,WindSpeedMPH,WindSpeedGustMPH,Humidity,HourlyPrecipIn,Conditions,Clouds,dailyrainin,SoftwareType,DateUTC
2013-05-18 00:01:00,58.9,37.0,30.07,ESE,115,3.0,8.0,44,0.00,,,0.00,WeatherCatV1.15B25,2013-05-18 04:01:00,
2013-05-18 00:06:00,58.8,36.9,30.06,ESE,119,2.0,2.0,44,0.00,,,0.00,WeatherCatV1.15B25,2013-05-18 04:06:00,
2013-05-18 00:11:00,58.6,36.8,30.06,ESE,115,7.0,7.0,44,0.00,,,0.00,WeatherCatV1.15B25,2013-05-18 04:11:00,
2013-05-18 00:16:00,58.5,36.7,30.07,SE,125,2.0,6.0,44,0.00,,,0.00,WeatherCatV1.15B25,2013-05-18 04:16:00,
2013-05-18 00:21:00,58.4,36.6,30.07,East,101,5.0,8.0,44,0.00,,,0.00,WeatherCatV1.15B25,2013-05-18 04:21:00,
2013-05-18 00:26:00,58.4,37.1,30.07,ESE,112,4.0,4.0,45,0.00,,,0.00,WeatherCatV1.15B25,2013-05-18 04:26:00,
2013-05-18 00:31:00,58.2,36.4,30.07,ESE,115,2.0,5.0,44,0.00,,,0.00,WeatherCatV1.15B25,2013-05-18 04:31:00,
2013-05-18 00:36:00,58.0,36.8,30.07,ESE,118,2.0,7.0,45,0.00,,,0.00,WeatherCatV1.15B25,2013-05-18 04:36:00,
2013-05-18 00:41:00,57.9,36.7,30.07,SE,138,2.0,5.0,45,0.00,,,0.00,WeatherCatV1.15B25,2013-05-18 04:41:00,
2013-05-18 00:46:00,57.8,37.2,30.07,ESE,105,4.0,7.0,46,0.00,,,0.00,WeatherCatV1.15B25,2013-05-18 04:46:00,
2013-05-18 00:51:00,57.7,37.1,30.07,ESE,103,3.0,6.0,46,0.00,,,0.00,WeatherCatV1.15B25,2013-05-18 04:51:00,
2013-05-18 00:56:00,57.6,37.0,30.07,ESE,110,2.0,4.0,46,0.00,,,0.00,WeatherCatV1.15B25,2013-05-18 04:56:00,
2013-05-18 01:01:00,57.5,37.4,30.07,SE,136,3.0,3.0,47,0.00,,,0.00,WeatherCatV1.15B25,2013-05-18 05:01:00,
2013-05-18 01:06:00,57.3,37.2,30.07,SE,136,6.0,7.0,47,0.00,,,0.00,WeatherCatV1.15B25,2013-05-18 05:06:00,
2013-05-18 01:11:00,57.3,37.2,30.07,SSE,150,2.0,4.0,47,0.00,,,0.00,WeatherCatV1.15B25,2013-05-18 05:11:00,
2013-05-18 01:16:00,57.3,37.8,30.07,SSE,159,3.0,4.0,48,0.00,,,0.00,WeatherCatV1.15B25,2013-05-18 05:16:00,
2013-05-18 01:21:00,57.1,37.6,30.07,ESE,109,3.0,4.0,48,0.00,,,0.00,WeatherCatV1.15B25,2013-05-18 05:21:00,
2013-05-18 01:26:00,57.0,38.0,30.07,SE,126,3.0,8.0,49,0.00,,,0.00,WeatherCatV1.15B25,2013-05-18 05:26:00,
2013-05-18 01:31:00,56.9,37.9,30.06,SE,134,3.0,7.0,49,0.00,,,0.00,WeatherCatV1.15B25,2013-05-18 05:31:00,
2013-05-18 01:36:00,56.9,38.5,30.06,ESE,104,3.0,5.0,50,0.00,,,0.00,WeatherCatV1.15B25,2013-05-18 05:36:00,
2013-05-18 01:41:00,56.7,38.8,30.06,ESE,104,4.0,6.0,51,0.00,,,0.00,WeatherCatV1.15B25,2013-05-18 05:41:00,
2013-05-18 01:46:00,56.6,38.7,30.05,SE,129,5.0,7.0,51,0.00,,,0.00,WeatherCatV1.15B25,2013-05-18 05:46:00,
2013-05-18 01:51:00,56.6,38.7,30.06,SE,146,8.0,8.0,51,0.00,,,0.00,WeatherCatV1.15B25,2013-05-18 05:51:00,
2013-05-18 01:56:00,56.4,39.0,30.05,SE,142,3.0,4.0,52,0.00,,,0.00,WeatherCatV1.15B25,2013-05-18 05:56:00,
2013-05-18 02:01:00,56.2,39.3,30.05,ESE,119,2.0,6.0,53,0.00,,,0.00,WeatherCatV1.15B25,2013-05-18 06:01:00,
2013-05-18 02:06:00,56.1,39.7,30.05,ESE,121,5.0,5.0,54,0.00,,,0.00,WeatherCatV1.15B25,2013-05-18 06:06:00,
2013-05-18 02:11:00,55.9,40.0,30.05,ESE,109,2.0,8.0,55,0.00,,,0.00,WeatherCatV1.15B25,2013-05-18 06:11:00,
2013-05-18 02:16:00,55.9,40.0,30.05,SE,139,3.0,6.0,55,0.00,,,0.00,WeatherCatV1.15B25,2013-05-18 06:16:00,
2013-05-18 02:21:00,55.9,40.4,30.04,SSE,150,3.0,6.0,56,0.00,,,0.00,WeatherCatV1.15B25,2013-05-18 06:21:00,
2013-05-18 02:26:00,55.9,40.4,30.04,SSE,154,3.0,3.0,56,0.00,,,0.00,WeatherCatV1.15B25,2013-05-18 06:26:00,
2013-05-18 02:31:00,55.9,40.4,30.05,SE,132,1.0,4.0,56,0.00,,,0.00,WeatherCatV1.15B25,2013-05-18 06:31:00,
2013-05-18 02:36:00,55.7,40.7,30.05,East,80,2.0,5.0,57,0.00,,,0.00,WeatherCatV1.15B25,2013-05-18 06:36:00,
2013-05-18 02:41:00,55.7,40.7,30.05,East,91,2.0,3.0,57,0.00,,,0.00,WeatherCatV1.15B25,2013-05-18 06:41:00,
2013-05-18 02:46:00,55.5,41.0,30.05,East,94,3.0,3.0,58,0.00,,,0.00,WeatherCatV1.15B25,2013-05-18 06:46:00,
2013-05-18 02:51:00,55.4,40.9,30.05,East,98,1.0,3.0,58,0.00,,,0.00,WeatherCatV1.15B25,2013-05-18 06:51:00,
2013-05-18 02:56:00,55.4,41.3,30.04,East,98,1.0,3.0,59,0.00,,,0.00,WeatherCatV1.15B25,2013-05-18 06:56:00,
2013-05-18 03:01:00,55.3,41.2,30.04,ESE,112,2.0,5.0,59,0.00,,,0.00,WeatherCatV1.15B25,2013-05-18 07:01:00,
2013-05-18 03:06:00,55.2,41.1,30.04,East,86,1.0,3.0,59,0.00,,,0.00,WeatherCatV1.15B25,2013-05-18 07:06:00,
2013-05-18 03:11:00,55.1,41.5,30.04,East,87,2.0,3.0,60,0.00,,,0.00,WeatherCatV1.15B25,2013-05-18 07:11:00,
2013-05-18 03:16:00,55.1,41.0,30.04,ESE,103,2.0,3.0,59,0.00,,,0.00,WeatherCatV1.15B25,2013-05-18 07:16:00,
2013-05-18 03:21:00,55.1,41.5,30.03,ESE,115,3.0,3.0,60,0.00,,,0.00,WeatherCatV1.15B25,2013-05-18 07:21:00,
2013-05-18 03:23:00,55.1,41.5,30.03,East,96,2.0,3.0,60,0.00,,,0.00,WeatherCatV1.15B25,2013-05-18 07:23:00,
2013-05-18 03:28:00,55.1,41.5,30.03,East,101,3.0,5.0,60,0.00,,,0.00,WeatherCatV1.15B25,2013-05-18 07:28:00,
2013-05-18 03:33:00,55.1,41.5,30.04,East,96,3.0,5.0,60,0.00,,,0.00,WeatherCatV1.15B25,2013-05-18 07:33:00,
2013-05-18 03:38:00,54.9,41.7,30.04,East,94,1.0,3.0,61,0.00,,,0.00,WeatherCatV1.15B25,2013-05-18 07:38:00,
2013-05-18 03:43:00,54.8,41.6,30.04,East,86,1.0,2.0,61,0.00,,,0.00,WeatherCatV1.15B25,2013-05-18 07:43:00,
2013-05-18 03:48:00,54.6,41.8,30.04,East,87,2.0,3.0,62,0.00,,,0.00,WeatherCatV1.15B25,2013-05-18 07:48:00,
2013-05-18 03:53:00,54.5,41.7,30.04,East,101,1.0,3.0,62,0.00,,,0.00,WeatherCatV1.15B25,2013-05-18 07:53:00,
2013-05-18 03:54:00,54.5,41.7,30.03,East,99,3.0,3.0,62,0.00,,,0.00,WeatherCatV1.15B25,2013-05-18 07:54:00,
2013-05-18 03:59:00,54.5,42.2,30.03,East,101,2.0,3.0,63,0.00,,,0.00,WeatherCatV1.15B25,2013-05-18 07:59:00,
2013-05-18 04:04:00,54.4,42.1,30.03,ESE,105,3.0,5.0,63,0.00,,,0.00,WeatherCatV1.15B25,2013-05-18 08:04:00,
2013-05-18 04:09:00,54.4,42.1,30.04,East,86,1.0,2.0,63,0.00,,,0.00,WeatherCatV1.15B25,2013-05-18 08:09:00,
2013-05-18 04:14:00,54.4,42.1,30.04,East,92,2.0,3.0,63,0.00,,,0.00,WeatherCatV1.15B25,2013-05-18 08:14:00,
2013-05-18 04:19:00,54.3,42.4,30.03,ESE,103,1.0,5.0,64,0.00,,,0.00,WeatherCatV1.15B25,2013-05-18 08:19:00,
2013-05-18 04:24:00,54.3,42.4,30.03,East,100,1.0,3.0,64,0.00,,,0.00,WeatherCatV1.15B25,2013-05-18 08:24:00,
2013-05-18 04:29:00,54.2,42.3,30.04,East,96,1.0,2.0,64,0.00,,,0.00,WeatherCatV1.15B25,2013-05-18 08:29:00,
2013-05-18 04:34:00,53.9,42.4,30.04,East,96,2.0,2.0,65,0.00,,,0.00,WeatherCatV1.15B25,2013-05-18 08:34:00,
2013-05-18 04:39:00,53.7,42.6,30.04,East,96,2.0,2.0,66,0.00,,,0.00,WeatherCatV1.15B25,2013-05-18 08:39:00,
2013-05-18 04:44:00,53.6,42.5,30.04,East,96,1.0,3.0,66,0.00,,,0.00,WeatherCatV1.15B25,2013-05-18 08:44:00,
2013-05-18 04:50:00,53.4,42.3,30.04,East,96,1.0,2.0,66,0.00,,,0.00,WeatherCatV1.15B25,2013-05-18 08:50:00,
2013-05-18 04:54:00,53.3,42.2,30.04,East,95,2.0,3.0,66,0.00,,,0.00,WeatherCatV1.15B25,2013-05-18 08:54:00,
2013-05-18 04:59:00,53.2,42.5,30.04,East,96,1.0,3.0,67,0.00,,,0.00,WeatherCatV1.15B25,2013-05-18 08:59:00,
2013-05-18 05:04:00,53.2,42.5,30.04,East,93,2.0,5.0,67,0.00,,,0.00,WeatherCatV1.15B25,2013-05-18 09:04:00,
2013-05-18 05:09:00,53.1,42.4,30.04,East,93,1.0,2.0,67,0.00,,,0.00,WeatherCatV1.15B25,2013-05-18 09:09:00,
2013-05-18 05:14:00,52.9,42.6,30.04,East,93,0.0,0.0,68,0.00,,,0.00,WeatherCatV1.15B25,2013-05-18 09:14:00,
2013-05-18 05:19:00,52.7,42.4,30.04,East,93,0.0,0.0,68,0.00,,,0.00,WeatherCatV1.15B25,2013-05-18 09:19:00,
2013-05-18 05:24:00,52.4,42.5,30.04,East,93,0.0,0.0,69,0.00,,,0.00,WeatherCatV1.15B25,2013-05-18 09:24:00,
2013-05-18 05:29:00,52.2,42.7,30.04,East,93,0.0,0.0,70,0.00,,,0.00,WeatherCatV1.15B25,2013-05-18 09:29:00,
2013-05-18 05:35:00,51.9,42.4,30.04,East,93,0.0,0.0,70,0.00,,,0.00,WeatherCatV1.15B25,2013-05-18 09:35:00,
2013-05-18 05:40:00,51.6,42.9,30.05,East,93,0.0,0.0,72,0.00,,,0.00,WeatherCatV1.15B25,2013-05-18 09:40:00,
2013-05-18 05:45:00,51.4,42.7,30.05,East,93,0.0,0.0,72,0.00,,,0.00,WeatherCatV1.15B25,2013-05-18 09:45:00,
2013-05-18 05:50:00,51.2,42.8,30.05,East,93,0.0,0.0,73,0.00,,,0.00,WeatherCatV1.15B25,2013-05-18 09:50:00,
2013-05-18 05:55:00,50.8,42.8,30.05,East,93,0.0,1.0,74,0.00,,,0.00,WeatherCatV1.15B25,2013-05-18 09:55:00,
2013-05-18 06:00:00,50.2,42.2,30.05,East,93,0.0,1.0,74,0.00,,,0.00,WeatherCatV1.15B25,2013-05-18 10:00:00,
2013-05-18 06:05:00,49.7,42.4,30.05,East,93,0.0,1.0,76,0.00,,,0.00,WeatherCatV1.15B25,2013-05-18 10:05:00,
2013-05-18 06:10:00,49.6,42.7,30.05,East,93,0.0,1.0,77,0.00,,,0.00,WeatherCatV1.15B25,2013-05-18 10:10:00,
2013-05-18 06:15:00,49.9,42.6,30.06,East,93,0.0,1.0,76,0.00,,,0.00,WeatherCatV1.15B25,2013-05-18 10:15:00,
2013-05-18 06:20:00,50.3,42.7,30.06,East,93,1.0,2.0,75,0.00,,,0.00,WeatherCatV1.15B25,2013-05-18 10:20:00,
2013-05-18 06:25:00,50.8,43.2,30.06,ENE,72,1.0,2.0,75,0.00,,,0.00,WeatherCatV1.15B25,2013-05-18 10:25:00,
2013-05-18 06:30:00,50.8,43.2,30.06,East,80,1.0,2.0,75,0.00,,,0.00,WeatherCatV1.15B25,2013-05-18 10:30:00,
2013-05-18 06:35:00,51.1,43.1,30.07,ENE,77,1.0,2.0,74,0.00,,,0.00,WeatherCatV1.15B25,2013-05-18 10:35:00,
2013-05-18 06:40:00,51.5,43.5,30.07,ENE,76,2.0,3.0,74,0.00,,,0.00,WeatherCatV1.15B25,2013-05-18 10:40:00,
2013-05-18 06:45:00,52.1,43.7,30.07,ENE,68,1.0,3.0,73,0.00,,,0.00,WeatherCatV1.15B25,2013-05-18 10:45:00,
2013-05-18 06:50:00,52.6,44.2,30.07,East,82,2.0,5.0,73,0.00,,,0.00,WeatherCatV1.15B25,2013-05-18 10:50:00,
2013-05-18 06:55:00,52.9,44.1,30.07,East,82,1.0,2.0,72,0.00,,,0.00,WeatherCatV1.15B25,2013-05-18 10:55:00,
2013-05-18 07:00:00,53.4,44.2,30.07,East,85,2.0,3.0,71,0.00,,,0.00,WeatherCatV1.15B25,2013-05-18 11:00:00,
2013-05-18 07:05:00,53.8,44.6,30.07,ENE,78,2.0,3.0,71,0.00,,,0.00,WeatherCatV1.15B25,2013-05-18 11:05:00,
2013-05-18 07:10:00,54.2,44.6,30.07,East,88,2.0,5.0,70,0.00,,,0.00,WeatherCatV1.15B25,2013-05-18 11:10:00,
2013-05-18 07:15:00,54.7,44.7,30.07,ESE,106,3.0,6.0,69,0.00,,,0.00,WeatherCatV1.15B25,2013-05-18 11:15:00,
2013-05-18 07:20:00,55.1,45.1,30.06,East,91,3.0,6.0,69,0.00,,,0.00,WeatherCatV1.15B25,2013-05-18 11:20:00,
2013-05-18 07:25:00,55.5,45.1,30.06,East,98,3.0,7.0,68,0.00,,,0.00,WeatherCatV1.15B25,2013-05-18 11:25:00,
2013-05-18 07:30:00,55.9,45.1,30.06,ESE,103,7.0,7.0,67,0.00,,,0.00,WeatherCatV1.15B25,2013-05-18 11:30:00,
2013-05-18 07:35:00,56.4,45.6,30.06,ESE,107,5.0,8.0,67,0.00,,,0.00,WeatherCatV1.15B25,2013-05-18 11:35:00,
2013-05-18 07:40:00,56.9,46.1,30.05,ESE,115,5.0,6.0,67,0.00,,,0.00,WeatherCatV1.15B25,2013-05-18 11:40:00,
2013-05-18 07:45:00,57.5,46.2,30.05,East,86,7.0,7.0,66,0.00,,,0.00,WeatherCatV1.15B25,2013-05-18 11:45:00,
2013-05-18 07:50:00,57.9,46.2,30.05,ESE,106,2.0,7.0,65,0.00,,,0.00,WeatherCatV1.15B25,2013-05-18 11:50:00,
2013-05-18 07:55:00,58.2,46.5,30.05,ESE,111,4.0,7.0,65,0.00,,,0.00,WeatherCatV1.15B25,2013-05-18 11:55:00,
2013-05-18 08:00:00,58.4,46.7,30.05,ESE,119,5.0,7.0,65,0.00,,,0.00,WeatherCatV1.15B25,2013-05-18 12:00:00,
2013-05-18 08:05:00,58.6,46.5,30.05,East,96,3.0,7.0,64,0.00,,,0.00,WeatherCatV1.15B25,2013-05-18 12:05:00,
2013-05-18 08:10:00,58.7,47.0,30.06,East,93,7.0,10.0,65,0.00,,,0.00,WeatherCatV1.15B25,2013-05-18 12:10:00,
2013-05-18 08:15:00,58.6,46.9,30.05,ESE,113,4.0,6.0,65,0.00,,,0.00,WeatherCatV1.15B25,2013-05-18 12:15:00,
2013-05-18 08:20:00,58.6,46.5,30.05,ESE,103,3.0,6.0,64,0.00,,,0.00,WeatherCatV1.15B25,2013-05-18 12:20:00,
2013-05-18 08:25:00,58.7,46.1,30.05,ESE,119,3.0,8.0,63,0.00,,,0.00,WeatherCatV1.15B25,2013-05-18 12:25:00,
2013-05-18 08:30:00,58.8,46.2,30.05,ESE,116,5.0,8.0,63,0.00,,,0.00,WeatherCatV1.15B25,2013-05-18 12:30:00,
2013-05-18 08:35:00,58.9,46.7,30.05,ESE,112,9.0,9.0,64,0.00,,,0.00,WeatherCatV1.15B25,2013-05-18 12:35:00,
2013-05-18 08:40:00,59.1,46.9,30.05,ESE,116,3.0,7.0,64,0.00,,,0.00,WeatherCatV1.15B25,2013-05-18 12:40:00,
2013-05-18 08:45:00,59.4,47.2,30.05,ESE,119,1.0,7.0,64,0.00,,,0.00,WeatherCatV1.15B25,2013-05-18 12:45:00,
2013-05-18 08:50:00,60.1,47.5,30.05,East,97,5.0,6.0,63,0.00,,,0.00,WeatherCatV1.15B25,2013-05-18 12:50:00,
2013-05-18 08:55:00,60.9,48.6,30.05,ESE,106,3.0,5.0,64,0.00,,,0.00,WeatherCatV1.15B25,2013-05-18 12:55:00,
2013-05-18 09:00:00,61.4,47.8,30.05,East,89,7.0,7.0,61,0.00,,,0.00,WeatherCatV1.15B25,2013-05-18 13:00:00,
2013-05-18 09:05:00,61.8,47.3,30.05,SE,127,5.0,8.0,59,0.00,,,0.00,WeatherCatV1.15B25,2013-05-18 13:05:00,
2013-05-18 09:10:00,62.1,48.5,30.05,ENE,73,7.0,7.0,61,0.00,,,0.00,WeatherCatV1.15B25,2013-05-18 13:10:00,
2013-05-18 09:15:00,62.4,47.9,30.05,ESE,109,9.0,9.0,59,0.00,,,0.00,WeatherCatV1.15B25,2013-05-18 13:15:00,
2013-05-18 09:20:00,62.7,48.2,30.05,ESE,119,3.0,8.0,59,0.00,,,0.00,WeatherCatV1.15B25,2013-05-18 13:20:00,
2013-05-18 09:25:00,63.1,48.1,30.05,ESE,102,4.0,7.0,58,0.00,,,0.00,WeatherCatV1.15B25,2013-05-18 13:25:00,
2013-05-18 09:30:00,63.3,47.8,30.05,ENE,77,5.0,8.0,57,0.00,,,0.00,WeatherCatV1.15B25,2013-05-18 13:30:00,
2013-05-18 09:35:00,63.2,48.2,30.05,ENE,72,3.0,9.0,58,0.00,,,0.00,WeatherCatV1.15B25,2013-05-18 13:35:00,
2013-05-18 09:40:00,62.9,47.4,30.06,East,88,5.0,8.0,57,0.00,,,0.00,WeatherCatV1.15B25,2013-05-18 13:40:00,
2013-05-18 09:45:00,62.6,47.6,30.06,NE,56,5.0,8.0,58,0.00,,,0.00,WeatherCatV1.15B25,2013-05-18 13:45:00,
2013-05-18 09:50:00,62.7,47.7,30.06,East,97,6.0,7.0,58,0.00,,,0.00,WeatherCatV1.15B25,2013-05-18 13:50:00,
2013-05-18 09:55:00,63.3,48.3,30.06,ENE,76,8.0,9.0,58,0.00,,,0.00,WeatherCatV1.15B25,2013-05-18 13:55:00,
2013-05-18 10:00:00,63.8,48.7,30.06,East,93,7.0,8.0,58,0.00,,,0.00,WeatherCatV1.15B25,2013-05-18 14:00:00,
2013-05-18 10:04:00,64.4,48.8,30.06,East,92,5.0,9.0,57,0.00,,,0.00,WeatherCatV1.15B25,2013-05-18 14:04:00,
2013-05-18 10:09:00,65.0,48.9,30.05,East,97,8.0,8.0,56,0.00,,,0.00,WeatherCatV1.15B25,2013-05-18 14:09:00,
2013-05-18 10:14:00,65.9,49.8,30.05,ENE,75,5.0,8.0,56,0.00,,,0.00,WeatherCatV1.15B25,2013-05-18 14:14:00,
2013-05-18 10:19:00,66.4,48.2,30.05,SE,126,3.0,9.0,52,0.00,,,0.00,WeatherCatV1.15B25,2013-05-18 14:19:00,
2013-05-18 10:24:00,66.6,48.9,30.05,ESE,123,4.0,8.0,53,0.00,,,0.00,WeatherCatV1.15B25,2013-05-18 14:24:00,
2013-05-18 10:29:00,67.0,48.3,30.05,ESE,114,5.0,10.0,51,0.00,,,0.00,WeatherCatV1.15B25,2013-05-18 14:29:00,
2013-05-18 10:34:00,67.0,47.7,30.05,ESE,113,5.0,9.0,50,0.00,,,0.00,WeatherCatV1.15B25,2013-05-18 14:34:00,
2013-05-18 10:39:00,67.0,47.7,30.04,ESE,119,5.0,9.0,50,0.00,,,0.00,WeatherCatV1.15B25,2013-05-18 14:39:00,
2013-05-18 10:44:00,67.4,49.2,30.04,SSE,153,7.0,7.0,52,0.00,,,0.00,WeatherCatV1.15B25,2013-05-18 14:44:00,
2013-05-18 10:49:00,68.0,49.2,30.04,ESE,105,5.0,6.0,51,0.00,,,0.00,WeatherCatV1.15B25,2013-05-18 14:49:00,
2013-05-18 10:54:00,68.5,49.6,30.03,East,79,5.0,6.0,51,0.00,,,0.00,WeatherCatV1.15B25,2013-05-18 14:54:00,
2013-05-18 10:59:00,68.6,48.1,30.04,ESE,114,8.0,14.0,48,0.00,,,0.00,WeatherCatV1.15B25,2013-05-18 14:59:00,
2013-05-18 11:04:00,68.7,48.8,30.04,SE,129,11.0,11.0,49,0.00,,,0.00,WeatherCatV1.15B25,2013-05-18 15:04:00,
2013-05-18 11:09:00,69.0,48.5,30.04,ENE,76,7.0,10.0,48,0.00,,,0.00,WeatherCatV1.15B25,2013-05-18 15:09:00,
2013-05-18 11:14:00,69.2,49.2,30.04,SE,131,5.0,9.0,49,0.00,,,0.00,WeatherCatV1.15B25,2013-05-18 15:14:00,
2013-05-18 11:19:00,69.7,49.7,30.04,SSE,152,2.0,9.0,49,0.00,,,0.00,WeatherCatV1.15B25,2013-05-18 15:19:00,
2013-05-18 11:24:00,70.2,50.7,30.04,East,84,2.0,8.0,50,0.00,,,0.00,WeatherCatV1.15B25,2013-05-18 15:24:00,
2013-05-18 11:29:00,70.6,49.4,30.04,ESE,117,8.0,10.0,47,0.00,,,0.00,WeatherCatV1.15B25,2013-05-18 15:29:00,
2013-05-18 11:34:00,70.6,49.4,30.04,SSE,168,5.0,6.0,47,0.00,,,0.00,WeatherCatV1.15B25,2013-05-18 15:34:00,
2013-05-18 11:39:00,70.7,48.9,30.04,SE,133,7.0,9.0,46,0.00,,,0.00,WeatherCatV1.15B25,2013-05-18 15:39:00,
2013-05-18 11:44:00,70.8,50.7,30.04,SE,128,2.0,8.0,49,0.00,,,0.00,WeatherCatV1.15B25,2013-05-18 15:44:00,
2013-05-18 11:49:00,71.0,49.7,30.04,East,97,3.0,10.0,47,0.00,,,0.00,WeatherCatV1.15B25,2013-05-18 15:49:00,
2013-05-18 11:54:00,71.2,49.9,30.04,ESE,107,4.0,12.0,47,0.00,,,0.00,WeatherCatV1.15B25,2013-05-18 15:54:00,
2013-05-18 11:59:00,71.2,50.5,30.04,SSE,161,8.0,8.0,48,0.00,,,0.00,WeatherCatV1.15B25,2013-05-18 15:59:00,
2013-05-18 12:04:00,71.4,50.1,30.04,East,90,5.0,9.0,47,0.00,,,0.00,WeatherCatV1.15B25,2013-05-18 16:04:00,
2013-05-18 12:09:00,71.6,50.3,30.04,East,94,8.0,10.0,47,0.00,,,0.00,WeatherCatV1.15B25,2013-05-18 16:09:00,
2013-05-18 12:14:00,71.7,50.4,30.04,WSW,238,4.0,12.0,47,0.00,,,0.00,WeatherCatV1.15B25,2013-05-18 16:14:00,
2013-05-18 12:19:00,71.9,51.1,30.03,NE,55,4.0,8.0,48,0.00,,,0.00,WeatherCatV1.15B25,2013-05-18 16:19:00,
2013-05-18 12:24:00,72.1,49.6,30.03,ENE,74,3.0,11.0,45,0.00,,,0.00,WeatherCatV1.15B25,2013-05-18 16:24:00,
2013-05-18 12:29:00,72.3,50.9,30.03,ESE,113,3.0,10.0,47,0.00,,,0.00,WeatherCatV1.15B25,2013-05-18 16:29:00,
2013-05-18 12:34:00,72.9,51.5,30.03,ENE,65,5.0,10.0,47,0.00,,,0.00,WeatherCatV1.15B25,2013-05-18 16:34:00,
2013-05-18 12:39:00,73.3,51.8,30.03,ESE,105,5.0,9.0,47,0.00,,,0.00,WeatherCatV1.15B25,2013-05-18 16:39:00,
2013-05-18 12:44:00,73.3,51.8,30.03,East,98,5.0,12.0,47,0.00,,,0.00,WeatherCatV1.15B25,2013-05-18 16:44:00,
2013-05-18 12:49:00,73.5,51.4,30.03,South,176,7.0,11.0,46,0.00,,,0.00,WeatherCatV1.15B25,2013-05-18 16:49:00,
2013-05-18 12:54:00,73.3,51.3,30.03,NE,56,3.0,7.0,46,0.00,,,0.00,WeatherCatV1.15B25,2013-05-18 16:54:00,
2013-05-18 12:59:00,73.5,52.6,30.03,South,182,1.0,6.0,48,0.00,,,0.00,WeatherCatV1.15B25,2013-05-18 16:59:00,
2013-05-18 13:04:00,74.1,52.0,30.02,South,179,8.0,10.0,46,0.00,,,0.00,WeatherCatV1.15B25,2013-05-18 17:04:00,
2013-05-18 13:09:00,74.7,52.5,30.03,South,177,6.0,9.0,46,0.00,,,0.00,WeatherCatV1.15B25,2013-05-18 17:09:00,
2013-05-18 13:14:00,74.6,52.4,30.02,SSE,161,5.0,8.0,46,0.00,,,0.00,WeatherCatV1.15B25,2013-05-18 17:14:00,
2013-05-18 13:19:00,74.6,52.4,30.02,SSW,194,5.0,14.0,46,0.00,,,0.00,WeatherCatV1.15B25,2013-05-18 17:19:00,
2013-05-18 13:24:00,74.5,52.3,30.02,ENE,76,4.0,7.0,46,0.00,,,0.00,WeatherCatV1.15B25,2013-05-18 17:24:00,
2013-05-18 13:29:00,74.9,53.3,30.02,ENE,74,4.0,10.0,47,0.00,,,0.00,WeatherCatV1.15B25,2013-05-18 17:29:00,
2013-05-18 13:34:00,75.1,53.5,30.02,ESE,113,4.0,10.0,47,0.00,,,0.00,WeatherCatV1.15B25,2013-05-18 17:34:00,
2013-05-18 13:39:00,75.7,52.8,30.01,South,182,0.0,9.0,45,0.00,,,0.00,WeatherCatV1.15B25,2013-05-18 17:39:00,
2013-05-18 13:44:00,76.2,55.1,30.01,SSE,165,7.0,11.0,48,0.00,,,0.00,WeatherCatV1.15B25,2013-05-18 17:44:00,
2013-05-18 13:49:00,76.0,52.5,30.01,SE,137,5.0,13.0,44,0.00,,,0.00,WeatherCatV1.15B25,2013-05-18 17:49:00,
2013-05-18 13:54:00,75.7,53.4,30.00,ESE,113,7.0,10.0,46,0.00,,,0.00,WeatherCatV1.15B25,2013-05-18 17:54:00,
2013-05-18 13:59:00,75.6,53.3,30.00,SSE,151,7.0,10.0,46,0.00,,,0.00,WeatherCatV1.15B25,2013-05-18 17:59:00,
2013-05-18 14:04:00,75.8,54.1,30.00,South,169,7.0,9.0,47,0.00,,,0.00,WeatherCatV1.15B25,2013-05-18 18:04:00,
2013-05-18 14:09:00,76.2,53.3,30.00,SSE,167,2.0,11.0,45,0.00,,,0.00,WeatherCatV1.15B25,2013-05-18 18:09:00,
2013-05-18 14:14:00,76.4,52.9,30.00,SSE,157,4.0,12.0,44,0.00,,,0.00,WeatherCatV1.15B25,2013-05-18 18:14:00,
2013-05-18 14:19:00,76.4,52.9,30.00,SSW,195,6.0,8.0,44,0.00,,,0.00,WeatherCatV1.15B25,2013-05-18 18:19:00,
2013-05-18 14:24:00,76.8,53.8,30.00,SSE,163,10.0,13.0,45,0.00,,,0.00,WeatherCatV1.15B25,2013-05-18 18:24:00,
2013-05-18 14:29:00,76.6,53.0,30.00,ESE,104,3.0,5.0,44,0.00,,,0.00,WeatherCatV1.15B25,2013-05-18 18:29:00,
2013-05-18 14:34:00,77.0,54.6,29.99,South,182,6.0,10.0,46,0.00,,,0.00,WeatherCatV1.15B25,2013-05-18 18:34:00,
2013-05-18 14:39:00,77.5,53.8,30.00,SE,130,2.0,7.0,44,0.00,,,0.00,WeatherCatV1.15B25,2013-05-18 18:39:00,
2013-05-18 14:44:00,77.3,54.3,29.99,East,90,10.0,10.0,45,0.00,,,0.00,WeatherCatV1.15B25,2013-05-18 18:44:00,
2013-05-18 14:49:00,77.2,54.2,29.99,ESE,123,5.0,10.0,45,0.00,,,0.00,WeatherCatV1.15B25,2013-05-18 18:49:00,
2013-05-18 14:54:00,77.4,53.8,29.99,East,94,7.0,9.0,44,0.00,,,0.00,WeatherCatV1.15B25,2013-05-18 18:54:00,
2013-05-18 14:59:00,77.7,54.6,29.99,East,93,6.0,9.0,45,0.00,,,0.00,WeatherCatV1.15B25,2013-05-18 18:59:00,
2013-05-18 15:04:00,77.9,55.4,29.99,SE,146,5.0,8.0,46,0.00,,,0.00,WeatherCatV1.15B25,2013-05-18 19:04:00,
2013-05-18 15:09:00,78.0,55.5,29.98,SSW,198,5.0,7.0,46,0.00,,,0.00,WeatherCatV1.15B25,2013-05-18 19:09:00,
2013-05-18 15:14:00,78.0,53.7,29.98,SSE,147,8.0,8.0,43,0.00,,,0.00,WeatherCatV1.15B25,2013-05-18 19:14:00,
2013-05-18 15:19:00,77.9,54.8,29.98,SE,129,6.0,11.0,45,0.00,,,0.00,WeatherCatV1.15B25,2013-05-18 19:19:00,
2013-05-18 15:24:00,77.9,54.8,29.98,SSW,192,2.0,9.0,45,0.00,,,0.00,WeatherCatV1.15B25,2013-05-18 19:24:00,
2013-05-18 15:29:00,78.1,54.4,29.98,ESE,102,3.0,9.0,44,0.00,,,0.00,WeatherCatV1.15B25,2013-05-18 19:29:00,
2013-05-18 15:34:00,78.4,54.7,29.98,SE,136,8.0,10.0,44,0.00,,,0.00,WeatherCatV1.15B25,2013-05-18 19:34:00,
2013-05-18 15:39:00,78.1,55.0,29.98,SSE,167,5.0,11.0,45,0.00,,,0.00,WeatherCatV1.15B25,2013-05-18 19:39:00,
2013-05-18 15:44:00,78.3,55.2,29.98,SE,129,5.0,10.0,45,0.00,,,0.00,WeatherCatV1.15B25,2013-05-18 19:44:00,
2013-05-18 15:49:00,78.3,54.6,29.98,SSE,161,5.0,9.0,44,0.00,,,0.00,WeatherCatV1.15B25,2013-05-18 19:49:00,
2013-05-18 15:54:00,78.3,55.8,29.97,SSE,166,9.0,13.0,46,0.00,,,0.00,WeatherCatV1.15B25,2013-05-18 19:54:00,
2013-05-18 15:59:00,78.1,55.0,29.98,ESE,120,7.0,10.0,45,0.00,,,0.00,WeatherCatV1.15B25,2013-05-18 19:59:00,
2013-05-18 16:04:00,78.1,56.2,29.98,SE,127,9.0,11.0,47,0.00,,,0.00,WeatherCatV1.15B25,2013-05-18 20:04:00,
2013-05-18 16:09:00,77.8,54.7,29.98,SSE,163,6.0,8.0,45,0.00,,,0.00,WeatherCatV1.15B25,2013-05-18 20:09:00,
2013-05-18 16:14:00,77.6,55.8,29.98,South,190,7.0,10.0,47,0.00,,,0.00,WeatherCatV1.15B25,2013-05-18 20:14:00,
2013-05-18 16:19:00,77.8,55.3,29.98,SE,127,4.0,8.0,46,0.00,,,0.00,WeatherCatV1.15B25,2013-05-18 20:19:00,
2013-05-18 16:24:00,77.8,55.3,29.98,SE,138,11.0,12.0,46,0.00,,,0.00,WeatherCatV1.15B25,2013-05-18 20:24:00,
2013-05-18 16:29:00,77.7,56.4,29.98,South,176,3.0,9.0,48,0.00,,,0.00,WeatherCatV1.15B25,2013-05-18 20:29:00,
2013-05-18 16:34:00,77.8,55.3,29.97,ESE,113,4.0,11.0,46,0.00,,,0.00,WeatherCatV1.15B25,2013-05-18 20:34:00,
2013-05-18 16:39:00,77.9,55.4,29.97,South,169,6.0,10.0,46,0.00,,,0.00,WeatherCatV1.15B25,2013-05-18 20:39:00,
2013-05-18 16:44:00,77.5,54.5,29.97,East,94,6.0,11.0,45,0.00,,,0.00,WeatherCatV1.15B25,2013-05-18 20:44:00,
2013-05-18 16:49:00,77.2,54.2,29.97,ESE,116,9.0,9.0,45,0.00,,,0.00,WeatherCatV1.15B25,2013-05-18 20:49:00,
2013-05-18 16:54:00,77.2,54.2,29.97,SE,140,5.0,9.0,45,0.00,,,0.00,WeatherCatV1.15B25,2013-05-18 20:54:00,
2013-05-18 16:59:00,77.2,54.2,29.97,SSE,168,6.0,12.0,45,0.00,,,0.00,WeatherCatV1.15B25,2013-05-18 20:59:00,
2013-05-18 17:04:00,77.3,53.0,29.97,ESE,119,10.0,13.0,43,0.00,,,0.00,WeatherCatV1.15B25,2013-05-18 21:04:00,
2013-05-18 17:09:00,77.0,52.8,29.97,SE,145,7.0,11.0,43,0.00,,,0.00,WeatherCatV1.15B25,2013-05-18 21:09:00,
2013-05-18 17:14:00,76.8,52.6,29.97,ESE,113,5.0,10.0,43,0.00,,,0.00,WeatherCatV1.15B25,2013-05-18 21:14:00,
2013-05-18 17:19:00,76.7,51.2,29.97,SE,140,5.0,13.0,41,0.00,,,0.00,WeatherCatV1.15B25,2013-05-18 21:19:00,
2013-05-18 17:24:00,76.7,51.9,29.97,East,90,7.0,8.0,42,0.00,,,0.00,WeatherCatV1.15B25,2013-05-18 21:24:00,
2013-05-18 17:29:00,76.7,51.2,29.97,ESE,115,8.0,13.0,41,0.00,,,0.00,WeatherCatV1.15B25,2013-05-18 21:29:00,
2013-05-18 17:34:00,76.0,50.6,29.97,ESE,114,4.0,10.0,41,0.00,,,0.00,WeatherCatV1.15B25,2013-05-18 21:34:00,
2013-05-18 17:39:00,75.9,51.8,29.97,ESE,115,4.0,7.0,43,0.00,,,0.00,WeatherCatV1.15B25,2013-05-18 21:39:00,
2013-05-18 17:44:00,75.6,50.2,29.97,ESE,116,7.0,11.0,41,0.00,,,0.00,WeatherCatV1.15B25,2013-05-18 21:44:00,
2013-05-18 17:49:00,75.7,51.0,29.97,SE,140,6.0,11.0,42,0.00,,,0.00,WeatherCatV1.15B25,2013-05-18 21:49:00,
2013-05-18 17:54:00,75.6,50.9,29.97,ESE,119,3.0,11.0,42,0.00,,,0.00,WeatherCatV1.15B25,2013-05-18 21:54:00,
2013-05-18 17:59:00,75.0,49.0,29.97,SSE,155,5.0,13.0,40,0.00,,,0.00,WeatherCatV1.15B25,2013-05-18 21:59:00,
2013-05-18 18:04:00,74.5,49.2,29.97,SSE,159,5.0,10.0,41,0.00,,,0.00,WeatherCatV1.15B25,2013-05-18 22:04:00,
2013-05-18 18:09:00,74.4,49.1,29.97,SE,132,6.0,10.0,41,0.00,,,0.00,WeatherCatV1.15B25,2013-05-18 22:09:00,
2013-05-18 18:14:00,74.0,48.8,29.97,ESE,108,7.0,11.0,41,0.00,,,0.00,WeatherCatV1.15B25,2013-05-18 22:14:00,
2013-05-18 18:19:00,73.6,49.1,29.97,SSE,157,4.0,10.0,42,0.00,,,0.00,WeatherCatV1.15B25,2013-05-18 22:19:00,
2013-05-18 18:24:00,73.6,48.4,29.97,ESE,115,8.0,9.0,41,0.00,,,0.00,WeatherCatV1.15B25,2013-05-18 22:24:00,
2013-05-18 18:29:00,73.3,47.5,29.97,SE,128,3.0,11.0,40,0.00,,,0.00,WeatherCatV1.15B25,2013-05-18 22:29:00,
2013-05-18 18:34:00,73.2,46.7,29.97,SSE,157,7.0,9.0,39,0.00,,,0.00,WeatherCatV1.15B25,2013-05-18 22:34:00,
2013-05-18 18:39:00,72.9,46.5,29.97,ESE,113,7.0,12.0,39,0.00,,,0.00,WeatherCatV1.15B25,2013-05-18 22:39:00,
2013-05-18 18:44:00,72.5,47.4,29.97,ESE,109,5.0,9.0,41,0.00,,,0.00,WeatherCatV1.15B25,2013-05-18 22:44:00,
2013-05-18 18:49:00,72.3,46.6,29.97,SE,132,10.0,10.0,40,0.00,,,0.00,WeatherCatV1.15B25,2013-05-18 22:49:00,
2013-05-18 18:54:00,72.0,46.3,29.97,ESE,117,3.0,12.0,40,0.00,,,0.00,WeatherCatV1.15B25,2013-05-18 22:54:00,
2013-05-18 18:59:00,71.9,46.9,29.97,South,177,5.0,10.0,41,0.00,,,0.00,WeatherCatV1.15B25,2013-05-18 22:59:00,
2013-05-18 19:04:00,71.8,46.2,29.98,SSE,167,8.0,10.0,40,0.00,,,0.00,WeatherCatV1.15B25,2013-05-18 23:04:00,
2013-05-18 19:09:00,71.4,45.1,29.98,ESE,117,8.0,10.0,39,0.00,,,0.00,WeatherCatV1.15B25,2013-05-18 23:09:00,
2013-05-18 19:14:00,71.0,46.1,29.97,SE,135,4.0,7.0,41,0.00,,,0.00,WeatherCatV1.15B25,2013-05-18 23:14:00,
2013-05-18 19:19:00,71.0,46.7,29.98,SSE,155,7.0,7.0,42,0.00,,,0.00,WeatherCatV1.15B25,2013-05-18 23:19:00,
2013-05-18 19:24:00,71.0,46.7,29.98,SSE,148,10.0,12.0,42,0.00,,,0.00,WeatherCatV1.15B25,2013-05-18 23:24:00,
2013-05-18 19:29:00,70.7,45.8,29.97,SE,132,5.0,10.0,41,0.00,,,0.00,WeatherCatV1.15B25,2013-05-18 23:29:00,
2013-05-18 19:34:00,70.3,46.1,29.98,South,175,6.0,9.0,42,0.00,,,0.00,WeatherCatV1.15B25,2013-05-18 23:34:00,
2013-05-18 19:39:00,70.0,46.5,29.98,ESE,121,10.0,12.0,43,0.00,,,0.00,WeatherCatV1.15B25,2013-05-18 23:39:00,
2013-05-18 19:44:00,69.6,46.7,29.98,SSE,150,6.0,11.0,44,0.00,,,0.00,WeatherCatV1.15B25,2013-05-18 23:44:00,
2013-05-18 19:49:00,69.4,47.1,29.98,SSE,166,5.0,6.0,45,0.00,,,0.00,WeatherCatV1.15B25,2013-05-18 23:49:00,
2013-05-18 19:54:00,69.2,46.9,29.98,South,178,4.0,7.0,45,0.00,,,0.00,WeatherCatV1.15B25,2013-05-18 23:54:00,
2013-05-18 19:59:00,69.0,46.8,29.98,SSE,147,3.0,8.0,45,0.00,,,0.00,WeatherCatV1.15B25,2013-05-18 23:59:00,
2013-05-18 20:04:00,68.6,47.0,29.98,SSE,159,6.0,9.0,46,0.00,,,0.00,WeatherCatV1.15B25,2013-05-19 00:04:00,
2013-05-18 20:09:00,68.2,46.6,29.98,SSE,150,4.0,8.0,46,0.00,,,0.00,WeatherCatV1.15B25,2013-05-19 00:09:00,
2013-05-18 20:14:00,67.8,46.8,29.98,SSE,153,2.0,6.0,47,0.00,,,0.00,WeatherCatV1.15B25,2013-05-19 00:14:00,
2013-05-18 20:19:00,67.4,46.5,29.97,SSE,157,8.0,9.0,47,0.00,,,0.00,WeatherCatV1.15B25,2013-05-19 00:19:00,
2013-05-18 20:24:00,66.8,45.9,29.97,SE,140,5.0,7.0,47,0.00,,,0.00,WeatherCatV1.15B25,2013-05-19 00:24:00,
2013-05-18 20:29:00,66.4,46.1,29.98,SSE,149,4.0,8.0,48,0.00,,,0.00,WeatherCatV1.15B25,2013-05-19 00:29:00,
2013-05-18 20:34:00,65.9,45.6,29.98,South,174,5.0,12.0,48,0.00,,,0.00,WeatherCatV1.15B25,2013-05-19 00:34:00,
2013-05-18 20:39:00,65.5,45.8,29.97,SE,126,4.0,8.0,49,0.00,,,0.00,WeatherCatV1.15B25,2013-05-19 00:39:00,
2013-05-18 20:44:00,65.0,45.9,29.97,SE,132,7.0,9.0,50,0.00,,,0.00,WeatherCatV1.15B25,2013-05-19 00:44:00,
2013-05-18 20:49:00,64.6,46.1,29.97,SSE,148,4.0,7.0,51,0.00,,,0.00,WeatherCatV1.15B25,2013-05-19 00:49:00,
2013-05-18 20:54:00,64.3,45.8,29.97,SE,140,6.0,7.0,51,0.00,,,0.00,WeatherCatV1.15B25,2013-05-19 00:54:00,
2013-05-18 20:59:00,63.9,45.9,29.97,SE,131,5.0,11.0,52,0.00,,,0.00,WeatherCatV1.15B25,2013-05-19 00:59:00,
2013-05-18 21:04:00,63.6,45.6,29.97,SE,142,2.0,7.0,52,0.00,,,0.00,WeatherCatV1.15B25,2013-05-19 01:04:00,
2013-05-18 21:09:00,63.3,45.4,29.97,SE,139,4.0,9.0,52,0.00,,,0.00,WeatherCatV1.15B25,2013-05-19 01:09:00,
2013-05-18 21:14:00,63.1,45.2,29.97,SE,146,4.0,8.0,52,0.00,,,0.00,WeatherCatV1.15B25,2013-05-19 01:14:00,
2013-05-18 21:19:00,62.8,44.9,29.97,SE,144,7.0,7.0,52,0.00,,,0.00,WeatherCatV1.15B25,2013-05-19 01:19:00,
2013-05-18 21:24:00,62.5,45.1,29.97,South,171,5.0,7.0,53,0.00,,,0.00,WeatherCatV1.15B25,2013-05-19 01:24:00,
2013-05-18 21:29:00,62.3,45.4,29.98,SSE,152,2.0,4.0,54,0.00,,,0.00,WeatherCatV1.15B25,2013-05-19 01:29:00,
2013-05-18 21:34:00,62.0,45.2,29.98,SE,140,3.0,6.0,54,0.00,,,0.00,WeatherCatV1.15B25,2013-05-19 01:34:00,
2013-05-18 21:39:00,61.8,45.0,29.98,SE,144,3.0,6.0,54,0.00,,,0.00,WeatherCatV1.15B25,2013-05-19 01:39:00,
2013-05-18 21:44:00,61.6,45.3,29.98,SE,133,3.0,4.0,55,0.00,,,0.00,WeatherCatV1.15B25,2013-05-19 01:44:00,
2013-05-18 21:49:00,61.3,45.0,29.98,SE,132,8.0,8.0,55,0.00,,,0.00,WeatherCatV1.15B25,2013-05-19 01:49:00,
2013-05-18 21:54:00,61.1,45.3,29.98,SE,144,3.0,5.0,56,0.00,,,0.00,WeatherCatV1.15B25,2013-05-19 01:54:00,
2013-05-18 21:59:00,60.8,45.0,29.98,SSE,155,5.0,7.0,56,0.00,,,0.00,WeatherCatV1.15B25,2013-05-19 01:59:00,
2013-05-18 22:04:00,60.7,44.9,29.98,SE,133,6.0,6.0,56,0.00,,,0.00,WeatherCatV1.15B25,2013-05-19 02:04:00,
2013-05-18 22:09:00,60.4,45.1,29.98,SE,131,5.0,7.0,57,0.00,,,0.00,WeatherCatV1.15B25,2013-05-19 02:09:00,
2013-05-18 22:14:00,60.2,44.9,29.98,SE,140,2.0,4.0,57,0.00,,,0.00,WeatherCatV1.15B25,2013-05-19 02:14:00,
2013-05-18 22:19:00,60.0,45.2,29.98,SE,128,2.0,5.0,58,0.00,,,0.00,WeatherCatV1.15B25,2013-05-19 02:19:00,
2013-05-18 22:24:00,59.8,45.0,29.98,ESE,117,1.0,4.0,58,0.00,,,0.00,WeatherCatV1.15B25,2013-05-19 02:24:00,
2013-05-18 22:29:00,59.6,45.3,29.98,SE,131,2.0,4.0,59,0.00,,,0.00,WeatherCatV1.15B25,2013-05-19 02:29:00,
2013-05-18 22:34:00,59.5,45.2,29.98,ESE,120,1.0,3.0,59,0.00,,,0.00,WeatherCatV1.15B25,2013-05-19 02:34:00,
2013-05-18 22:41:00,59.3,45.4,29.99,SE,136,0.0,1.0,60,0.00,,,0.00,WeatherCatV1.15B25,2013-05-19 02:41:00,
2013-05-18 22:46:00,59.1,45.7,29.99,SE,136,0.0,1.0,61,0.00,,,0.00,WeatherCatV1.15B25,2013-05-19 02:46:00,
2013-05-18 22:51:00,58.9,45.5,29.98,SE,136,1.0,2.0,61,0.00,,,0.00,WeatherCatV1.15B25,2013-05-19 02:51:00,
2013-05-18 22:56:00,58.7,45.7,29.98,SE,136,2.0,2.0,62,0.00,,,0.00,WeatherCatV1.15B25,2013-05-19 02:56:00,
2013-05-18 23:01:00,58.6,45.6,29.98,SE,136,1.0,2.0,62,0.00,,,0.00,WeatherCatV1.15B25,2013-05-19 03:01:00,
2013-05-18 23:06:00,58.3,45.3,29.98,ESE,107,3.0,3.0,62,0.00,,,0.00,WeatherCatV1.15B25,2013-05-19 03:06:00,
2013-05-18 23:11:00,58.1,45.1,29.98,SE,136,2.0,4.0,62,0.00,,,0.00,WeatherCatV1.15B25,2013-05-19 03:11:00,
2013-05-18 23:16:00,58.1,45.6,29.98,SE,136,0.0,2.0,63,0.00,,,0.00,WeatherCatV1.15B25,2013-05-19 03:16:00,
2013-05-18 23:21:00,58.0,45.5,29.98,SE,133,1.0,2.0,63,0.00,,,0.00,WeatherCatV1.15B25,2013-05-19 03:21:00,
2013-05-18 23:26:00,58.0,45.5,29.98,SE,132,2.0,2.0,63,0.00,,,0.00,WeatherCatV1.15B25,2013-05-19 03:26:00,
2013-05-18 23:31:00,58.0,45.5,29.98,ESE,114,1.0,3.0,63,0.00,,,0.00,WeatherCatV1.15B25,2013-05-19 03:31:00,
2013-05-18 23:36:00,57.9,45.8,29.98,ESE,118,1.0,2.0,64,0.00,,,0.00,WeatherCatV1.15B25,2013-05-19 03:36:00,
2013-05-18 23:41:00,57.7,45.6,29.98,ESE,118,0.0,1.0,64,0.00,,,0.00,WeatherCatV1.15B25,2013-05-19 03:41:00,
2013-05-18 23:46:00,57.6,45.5,29.98,ESE,118,0.0,1.0,64,0.00,,,0.00,WeatherCatV1.15B25,2013-05-19 03:46:00,
2013-05-18 23:51:00,57.5,45.4,29.98,ESE,118,0.0,0.0,64,0.00,,,0.00,WeatherCatV1.15B25,2013-05-19 03:51:00,
2013-05-18 23:56:00,57.4,45.7,29.98,ESE,118,0.0,1.0,65,0.00,,,0.00,WeatherCatV1.15B25,2013-05-19 03:56:00,